Theta_e
297 298 297 298 297 296 296 295 297 296 297 300 297 298 300 299 292 290 297 300 298 298 297 298 299 300 300 300 301 301 302 302 303 304 302 302 302 303 303 304 305 305 306 307 307 307 307 309 310 312 319 321 322 324 324 323 324 326 329 329 328 329 330 329 329 329 330 328 329 329 328 328 328 328 328 327 325 325 323 322 322 320 321 320 321 322 322
295 298 298 298 297 296 296 297 297 298 299 299 299 299 299 298 298 300 299 299 297 295 295 297 298 300 300 300 301 301 300 299 299 300 300 299 300 300 300 301 302 302 303 303 304 305 305 305 305 307 308 311 318 323 323 321 323 325 330 328 329 328 327 328 329 329 329 329 328 328 327 327 327 326 325 324 323 322 322 322 322 321 320 320 320 321 320
292 296 298 298 297 298 296 297 297 298 299 299 298 298 298 299 300 299 300 299 295 297 298 298 300 300 300 300 299 297 298 298 298 298 298 298 298 299 299 299 300 301 302 302 302 302 302 302 303 304 304 306 308 317 320 322 323 325 327 329 327 326 324 325 327 327 327 327 327 326 327 327 327 326 326 328 327 322 323 323 323 322 322 319 319 320 320
289 295 296 296 297 297 297 294 294 294 295 294 295 293 296 295 293 297 298 295 292 296 298 298 299 298 297 296 296 296 296 297 297 297 297 297 298 298 298 299 299 299 300 300 300 301 301 302 303 303 303 304 305 307 314 314 317 323 323 324 324 323 323 323 324 324 324 324 324 324 324 323 324 324 324 325 325 325 325 324 323 324 323 322 323 324 323
287 293 296 296 295 294 289 287 291 292 295 295 297 297 296 296 297 293 291 292 296 297 297 296 295 295 294 294 295 296 296 297 297 297 297 297 297 298 298 298 298 299 298 299 300 301 302 302 302 303 304 303 302 304 308 311 314 316 316 317 317 317 319 320 320 320 320 320 319 318 317 318 319 320 320 320 321 322 323 324 325 324 326 324 323 321 319
288 287 290 294 290 283 283 291 295 295 293 293 292 292 293 295 296 294 298 297 298 298 298 295 292 292 291 293 294 296 296 296 296 297 297 297 298 298 299 299 299 299 299 299 300 301 302 302 302 304 304 303 302 303 305 308 309 310 310 310 310 311 312 312 313 313 315 316 316 316 316 316 316 316 316 317 319 320 321 322 322 322 321 320 319 317 315
287 291 291 286 281 283 291 296 296 297 297 295 291 294 294 294 295 296 297 297 297 296 295 293 293 293 293 294 294 294 296 297 296 296 297 298 298 298 298 298 299 299 299 299 299 300 301 302 303 303 302 302 302 302 303 304 305 306 307 307 307 308 309 310 311 311 312 312 313 314 314 313 312 312 313 315 315 316 318 318 318 317 317 316 315 314 313
291 288 287 278 281 288 294 295 296 297 298 294 295 293 292 293 295 294 293 295 295 295 294 294 295 293 293 293 293 294 296 296 296 297 297 297 297 297 298 298 298 298 299 299 299 299 301 301 302 303 302 303 302 301 301 302 302 302 303 303 304 306 307 308 308 309 310 309 310 310 311 311 310 310 310 311 311 312 313 314 316 316 316 316 315 313 312
285 286 286 285 289 289 289 290 290 290 287 289 288 285 288 293 295 295 293 294 294 293 293 294 295 295 296 293 291 294 295 296 298 298 298 299 298 299 299 299 299 300 300 300 300 300 300 300 300 300 302 302 301 301 300 300 300 300 300 301 301 302 304 305 307 308 308 309 309 308 309 309 309 310 308 308 308 308 309 310 310 311 313 313 314 315 313
290 287 285 284 283 281 283 289 294 296 295 293 293 290 289 293 294 296 294 294 293 292 293 294 295 296 295 288 288 291 294 296 297 298 299 300 300 300 300 300 301 301 301 300 300 300 300 300 300 301 301 301 300 299 299 299 299 300 300 299 300 300 301 302 304 305 306 307 306 307 308 308 308 308 308 308 307 308 306 306 306 307 308 307 308 309 310
289 287 282 282 280 281 287 289 293 295 296 295 294 289 285 290 293 294 294 292 292 293 292 292 293 292 289 286 287 290 294 295 296 296 297 298 298 298 299 299 299 299 299 299 300 300 299 298 300 301 301 300 299 298 298 298 298 298 298 299 299 300 300 302 303 303 304 305 306 305 304 304 304 304 305 306 307 308 307 307 307 306 306 306 305 306 306
287 286 285 280 282 281 287 291 293 294 296 296 291 283 282 289 294 294 293 292 291 292 291 293 290 288 287 285 287 291 294 296 296 296 296 296 296 296 297 298 299 298 299 298 297 297 298 299 301 301 300 300 299 299 298 299 297 297 298 299 300 301 301 302 303 303 303 303 304 304 304 304 305 305 305 305 305 305 307 308 308 308 307 306 306 306 307
287 285 284 286 285 288 291 292 294 295 296 292 284 279 283 292 294 295 294 293 293 293 291 290 285 284 286 286 289 293 296 296 295 296 297 296 296 296 297 297 298 298 298 297 297 297 298 299 299 299 299 299 298 298 298 298 298 299 300 301 301 301 301 301 301 302 304 304 303 304 304 305 305 305 305 305 306 307 307 307 307 307 307 306 307 307 307
286 288 285 283 284 287 292 293 296 296 292 283 282 288 294 293 293 293 293 291 291 290 288 287 285 285 286 288 291 293 294 295 296 295 295 296 296 297 297 297 298 298 298 298 298 299 299 298 299 299 298 298 298 297 296 296 298 300 302 301 301 301 301 301 302 302 302 303 304 305 305 304 303 304 304 305 306 306 307 307 307 306 305 305 305 304 304
288 287 284 282 278 286 293 293 294 294 287 286 292 293 293 293 291 291 291 290 289 289 287 288 287 286 286 288 290 293 295 296 295 295 294 294 294 295 295 296 297 297 296 296 297 298 298 299 299 299 298 297 297 297 295 296 298 299 299 300 300 300 299 300 301 302 303 304 303 303 303 303 303 303 303 304 305 305 306 305 306 306 306 306 306 305 304
283 281 279 278 284 288 293 292 286 290 292 295 295 294 290 292 292 291 289 290 290 290 289 288 289 290 290 292 294 295 295 296 295 295 295 295 295 295 296 296 296 297 296 297 297 298 299 299 299 299 298 297 297 297 297 299 300 300 300 300 300 300 300 300 300 300 300 301 302 302 302 302 302 302 302 302 303 304 305 304 304 304 304 306 306 306 306
285 282 283 288 291 293 294 294 294 295 296 297 296 295 293 291 291 293 291 290 291 292 291 291 291 290 292 292 294 294 295 296 295 295 295 295 295 295 295 295 296 297 296 296 297 297 299 299 299 299 299 298 298 298 300 301 300 301 301 301 301 301 300 300 300 300 300 300 300 300 301 301 301 301 302 303 302 302 303 303 303 303 302 303 303 303 303
292 293 292 294 293 294 295 298 298 296 297 298 298 295 293 293 294 294 292 292 292 293 293 291 291 291 292 292 293 294 295 296 296 296 296 296 297 297 297 297 298 298 297 297 297 297 298 298 299 299 299 299 298 299 301 302 302 302 302 302 301 300 300 300 301 302 302 301 301 302 302 301 301 301 301 301 302 302 303 302 302 302 300 301 301 301 301
289 282 292 292 293 295 296 296 297 299 299 298 298 296 295 295 295 294 295 294 294 293 293 292 291 292 293 292 293 294 294 294 296 296 295 295 296 296 296 297 298 298 298 297 296 297 297 298 299 299 299 300 299 300 300 301 302 303 302 302 301 301 301 301 300 299 300 300 301 301 302 302 302 302 301 301 301 300 301 302 301 300 301 301 301 301 302
286 286 291 293 295 296 297 296 295 295 296 297 298 298 298 297 297 296 296 296 294 295 294 294 293 293 294 293 294 294 293 294 294 294 294 295 296 297 297 297 297 297 297 297 297 297 297 298 299 299 300 300 300 300 301 301 302 302 301 302 302 302 302 301 301 301 301 295 298 300 300 300 300 301 302 303 301 298 297 298 299 301 302 301 301 302 302
290 292 293 293 294 294 294 296 297 297 297 296 297 298 297 298 297 297 297 297 296 296 295 296 295 294 295 294 294 293 293 294 294 294 295 295 295 295 295 296 296 295 296 297 297 297 296 298 299 299 299 299 300 300 301 301 301 301 300 300 301 301 301 301 301 301 301 301 302 302 302 300 299 298 298 301 302 300 298 297 296 297 300 301 300 301 302
286 287 289 293 287 286 291 294 296 297 298 298 297 297 297 297 297 296 296 296 297 297 297 297 296 294 294 295 295 294 294 294 294 295 295 296 296 296 297 297 297 296 296 296 296 295 296 297 297 297 299 300 300 300 300 301 301 300 299 299 300 299 299 298 300 301 301 301 301 301 301 302 301 297 289 289 296 299 299 290 288 288 290 295 296 298 300
286 292 294 295 294 294 294 295 297 298 298 298 296 296 297 297 297 297 296 296 296 296 297 298 296 295 295 295 295 294 294 294 295 295 295 295 296 296 297 297 297 297 297 297 297 296 296 297 297 297 298 299 300 301 301 301 301 300 300 299 299 299 299 298 296 299 300 300 301 301 301 301 302 298 299 297 288 288 291 290 290 288 288 287 287 287 293
294 295 295 296 294 292 294 296 297 297 298 297 296 297 298 298 298 298 298 298 296 296 297 297 298 297 296 296 296 295 295 296 296 297 297 297 297 297 297 297 297 297 297 297 297 296 297 297 297 297 297 298 300 300 301 301 301 301 300 299 299 299 299 300 299 299 300 300 300 300 300 300 300 300 300 298 298 290 289 289 288 288 288 288 288 288 288
293 297 297 297 296 296 297 297 297 298 298 298 297 296 297 297 297 298 298 298 299 298 297 297 298 299 298 297 297 297 296 296 296 295 295 295 295 296 297 297 297 296 297 297 298 297 297 297 297 297 297 298 300 300 301 301 300 300 300 299 299 299 299 299 298 299 298 299 300 300 300 299 300 299 299 298 298 297 295 289 288 289 289 289 288 289 289
297 297 297 297 297 297 298 296 296 297 297 297 296 296 296 297 297 297 297 297 297 298 297 297 297 298 298 297 296 296 296 296 294 295 297 296 296 296 296 296 296 297 297 297 297 298 298 297 296 297 297 298 299 300 301 301 301 300 300 300 300 298 297 297 299 299 299 300 299 299 300 299 299 299 299 299 299 298 297 296 296 293 289 288 289 289 289
298 298 297 295 295 295 296 294 293 297 297 298 297 297 297 298 297 297 297 297 297 297 297 298 298 298 298 298 297 297 295 296 295 296 296 296 295 296 297 297 297 297 297 297 297 296 294 296 296 297 297 299 301 301 301 301 300 300 300 300 300 293 289 294 298 299 299 299 299 298 298 299 299 298 299 298 299 297 298 297 297 297 296 296 290 288 294
297 297 297 293 291 293 295 296 297 297 297 297 297 296 297 297 296 295 295 296 296 296 297 297 297 297 297 297 296 296 295 295 295 296 296 296 297 297 297 298 298 297 297 296 297 297 297 297 297 297 297 299 301 301 301 300 300 300 300 300 299 299 300 299 299 299 299 299 299 299 298 299 299 298 297 299 297 299 297 298 297 297 299 298 297 291 290
296 296 297 297 296 297 297 297 297 296 296 297 297 297 297 295 295 295 295 295 296 296 296 296 297 297 297 297 297 296 295 296 295 295 295 296 296 297 297 297 297 296 296 296 296 297 297 297 297 297 297 299 299 300 301 301 301 300 300 300 300 299 300 299 299 299 299 299 299 297 292 295 299 298 298 299 296 298 297 297 297 297 298 299 299 297 292
296 297 297 297 297 297 296 295 295 295 296 296 296 295 296 295 294 294 294 295 296 295 296 296 297 296 297 296 296 296 296 295 296 296 296 296 297 297 296 296 296 296 295 295 296 296 296 297 296 296 297 299 299 300 301 301 300 301 301 300 299 299 298 297 297 298 299 299 298 292 295 298 298 298 297 298 297 296 295 294 295 294 296 297 294 297 296
296 297 297 297 296 297 296 295 295 295 295 295 296 295 296 296 295 295 295 296 296 296 296 296 296 296 296 296 297 297 297 297 296 296 296 297 297 296 295 295 293 292 293 294 296 296 295 295 297 297 298 299 298 300 301 300 300 300 300 300 300 291 288 290 292 296 297 298 297 298 297 296 297 295 293 295 297 296 296 295 295 295 295 297 296 295 296
296 296 296 296 296 296 295 295 295 295 295 296 295 295 295 295 294 295 295 295 296 296 296 296 296 296 296 297 297 297 296 295 294 295 295 295 291 288 291 294 294 293 296 296 296 296 297 297 296 297 298 299 299 299 300 299 299 299 299 296 299 297 293 289 294 296 296 295 296 298 295 297 297 297 295 296 295 295 296 295 294 294 294 295 295 296 295
294 292 292 293 293 294 294 294 294 295 295 295 295 296 296 296 296 295 296 296 296 296 296 296 297 298 298 298 297 296 295 291 291 290 289 287 287 287 288 294 295 296 296 297 298 297 297 297 297 299 299 299 299 298 299 300 300 299 300 300 299 299 294 293 292 295 295 296 296 297 297 297 297 298 296 294 295 294 295 295 293 293 293 294 295 295 294
295 295 295 295 295 294 293 294 295 295 295 296 296 296 296 296 296 296 296 297 297 296 296 297 298 298 298 297 295 291 290 290 291 291 287 287 287 288 292 295 297 297 297 298 297 297 297 297 298 298 299 299 299 299 299 300 300 299 300 299 298 298 297 297 296 296 296 295 296 296 295 296 296 296 296 294 295 294 293 293 293 293 294 295 295 294 290
298 297 297 297 297 297 296 296 295 295 295 295 295 296 296 297 297 297 296 296 297 297 298 299 298 296 291 289 287 288 287 288 289 288 287 288 288 287 292 294 295 296 297 297 297 297 297 298 298 298 298 299 299 298 300 300 300 300 299 300 299 298 297 297 296 296 296 297 297 297 297 296 295 293 294 295 295 294 293 293 293 293 294 293 295 295 294
297 297 297 297 297 297 297 297 297 296 296 296 296 296 296 296 297 297 297 297 298 299 298 298 297 293 288 287 288 286 286 288 288 287 287 287 286 288 291 293 292 293 295 296 297 298 298 299 290 288 297 298 298 299 300 300 300 300 300 300 298 297 297 296 297 296 297 297 296 296 295 293 294 295 296 295 295 294 294 293 293 293 294 292 293 294 292
297 297 297 297 297 297 297 297 297 297 296 296 296 296 297 297 297 298 298 298 299 299 299 298 298 294 289 287 289 289 288 289 291 291 291 289 289 288 290 291 292 293 295 294 296 299 298 298 286 283 294 297 298 299 299 291 300 302 299 300 299 298 297 296 296 296 296 296 296 296 292 294 295 296 293 295 294 293 294 294 293 294 292 293 293 291 292
298 298 298 298 297 297 298 298 298 298 297 297 297 297 297 297 297 298 299 298 298 299 299 298 297 296 293 290 288 287 287 287 287 286 285 285 287 288 291 292 291 292 292 294 298 298 298 292 282 291 298 298 298 299 296 289 292 298 300 299 298 297 296 296 295 295 295 297 295 296 295 295 294 295 295 294 294 294 293 293 293 293 293 293 292 292 292
297 298 298 298 298 297 297 298 298 298 297 296 297 297 297 298 298 299 299 299 299 299 299 298 298 297 296 296 294 293 289 286 287 286 286 286 291 291 290 293 294 295 295 298 299 299 297 295 298 298 297 298 298 301 295 286 286 298 299 300 299 298 297 296 295 294 295 294 296 296 296 295 295 294 294 294 295 293 292 294 293 293 293 294 293 293 293
296 296 296 296 296 297 297 297 297 297 298 298 297 297 298 298 299 299 299 299 300 298 299 299 298 297 296 297 297 296 297 296 291 287 287 290 293 293 294 295 297 298 296 292 297 299 293 288 293 299 298 300 300 301 299 295 293 296 299 298 297 297 297 295 295 295 295 296 295 292 295 295 294 293 293 293 294 294 294 293 293 294 294 294 294 294 292
297 297 297 297 297 297 297 297 297 297 297 298 298 299 299 299 299 299 298 298 299 300 300 299 298 297 296 297 297 298 298 298 298 296 295 294 293 293 292 292 296 297 298 297 297 298 294 294 296 296 299 300 300 296 299 293 297 298 299 298 297 297 296 296 295 295 294 295 294 295 295 295 293 293 292 293 293 294 294 294 294 294 294 294 294 294 294
297 297 297 297 297 297 297 297 297 297 297 298 298 300 300 300 299 298 298 298 299 299 299 299 295 297 298 297 298 298 298 299 299 299 298 296 294 293 292 293 296 296 292 292 293 294 296 296 296 293 296 298 297 289 289 294 297 297 297 296 296 295 296 295 294 294 295 294 295 296 295 294 294 294 294 294 293 293 293 294 294 294 294 294 294 294 294
297 297 297 297 297 297 297 297 296 297 297 298 299 299 300 300 300 299 298 298 298 298 298 299 297 295 296 297 297 297 298 299 298 298 298 298 298 298 295 295 296 296 287 292 294 296 297 298 298 297 292 293 294 286 288 295 295 296 296 295 295 295 295 295 295 295 295 295 295 295 295 294 294 293 292 293 293 293 293 294 294 294 294 294 294 294 294
298 298 297 297 297 297 297 297 297 297 297 297 300 300 300 300 300 299 299 298 298 297 298 298 298 298 297 298 298 297 297 297 297 298 297 296 297 298 298 297 296 292 287 293 293 294 295 295 296 295 287 288 286 286 295 296 296 295 296 295 295 295 295 295 295 295 295 294 294 295 295 293 293 295 294 293 293 293 293 293 294 294 294 295 294 294 294
297 297 297 298 298 297 297 296 296 297 297 298 299 299 299 299 300 300 299 299 298 298 297 298 298 298 298 298 298 298 298 298 298 297 296 295 294 295 297 292 293 293 291 290 293 293 294 296 295 287 289 287 286 286 295 295 295 294 295 294 295 296 296 295 295 295 294 295 295 294 294 295 295 294 294 293 292 293 293 293 293 294 294 294 294 293 293
297 298 298 293 296 297 297 298 298 299 298 298 297 297 298 299 299 299 299 299 299 299 299 299 299 299 299 299 299 299 300 299 299 300 299 298 295 296 296 292 294 292 288 287 292 293 295 285 285 287 286 286 286 292 294 294 294 295 295 294 295 294 295 295 295 295 295 294 294 295 295 295 295 295 295 295 294 293 293 292 292 294 294 294 294 294 294
297 297 297 297 297 297 298 298 298 298 297 297 296 296 297 299 300 300 299 300 299 300 300 300 300 300 300 300 299 298 297 297 298 299 299 299 299 295 292 290 289 287 289 293 294 295 294 293 288 284 286 285 285 294 294 295 295 295 294 295 294 294 294 296 296 296 296 295 294 293 292 293 295 295 294 293 295 293 293 293 293 294 293 294 293 293 292
296 296 297 297 297 298 298 298 297 296 296 295 296 297 297 299 299 299 300 300 300 300 300 301 300 300 300 300 300 300 299 297 293 295 298 299 299 298 297 296 294 289 289 289 288 288 281 284 284 285 284 284 289 294 294 295 294 295 295 294 294 294 294 296 296 296 295 294 295 295 295 295 294 294 294 294 292 294 294 293 293 293 294 293 293 293 293
297 297 297 297 297 297 296 296 295 294 295 296 295 296 298 298 299 298 298 299 299 298 298 298 298 298 299 298 299 300 300 300 298 295 298 298 298 298 296 290 285 285 290 294 295 296 286 284 285 285 283 284 293 294 294 294 294 295 293 293 292 293 292 295 296 296 295 295 295 294 295 295 295 295 294 294 293 293 293 293 293 294 293 293 293 292 292
297 297 296 296 296 296 296 296 295 296 293 296 297 298 299 299 297 298 298 299 298 296 297 297 297 299 298 298 299 299 300 300 299 300 299 299 299 299 297 296 294 289 290 294 296 294 286 283 285 284 288 293 294 294 295 295 295 294 293 292 292 294 295 294 293 293 295 296 295 294 294 294 295 293 293 293 294 292 293 293 294 290 288 291 293 293 292
296 296 296 295 296 297 297 297 297 297 297 298 299 298 297 297 297 297 298 296 297 296 296 297 296 297 297 297 297 297 299 299 298 295 298 298 299 295 294 295 294 291 293 292 294 294 292 293 293 290 290 291 293 294 292 292 293 292 291 293 294 293 295 294 294 295 296 296 295 295 294 294 295 295 294 293 293 293 293 294 293 293 292 293 292 292 293
297 297 296 296 297 297 298 298 298 298 298 297 297 297 298 297 298 297 298 292 297 297 297 297 295 297 298 298 300 300 297 298 297 297 295 295 296 297 294 291 294 292 293 294 296 297 296 294 291 289 289 291 292 292 290 289 290 293 294 293 293 293 293 294 293 293 294 295 294 294 294 294 294 294 293 293 293 292 292 292 292 293 292 293 293 293 293
Wind_Speed
12 5 2 6 6 4 3 4 6 6 9 6 4 3 4 5 4 3 5 1 7 8 7 7 7 6 6 7 8 9 9 10 11 12 13 12 13 13 13 13 13 14 13 12 13 13 13 13 13 12 8 2 8 8 8 2 4 8 9 10 14 14 12 12 12 11 10 10 11 11 11 11 11 10 9 8 8 8 7 6 4 5 4 4 4 4 5
10 12 6 5 5 4 5 3 3 5 5 4 5 5 6 7 6 1 5 6 7 5 5 5 5 6 5 6 7 8 10 12 11 12 12 13 13 13 13 13 13 13 13 14 14 14 14 14 14 13 11 10 9 6 8 12 10 9 5 9 11 12 12 11 12 12 12 11 11 12 12 11 11 10 9 8 8 8 7 7 6 5 5 5 4 5 6
7 12 5 6 6 5 4 2 6 7 8 3 7 6 10 9 3 5 1 5 6 4 4 5 5 5 6 7 10 10 11 11 12 12 12 12 12 12 12 12 13 12 13 14 14 14 14 14 14 12 11 10 12 8 4 4 5 6 7 7 10 12 12 11 12 12 12 12 12 13 13 12 11 10 9 7 6 6 7 7 7 5 4 4 5 5 5
3 8 6 6 5 4 4 6 8 8 8 6 7 6 9 9 8 9 5 0 2 4 5 5 6 7 8 10 10 11 10 11 12 12 12 12 12 12 12 12 12 13 14 14 14 14 14 14 14 12 12 12 11 13 5 6 4 5 4 5 7 10 11 11 11 12 11 12 12 12 12 12 11 10 8 8 8 7 5 6 6 5 4 3 6 8 8
5 2 5 5 4 3 2 5 7 7 5 5 4 9 11 10 9 6 6 5 4 5 5 5 7 8 10 10 11 9 10 11 12 12 12 12 12 12 13 13 13 13 13 13 14 14 13 13 13 15 13 13 13 12 11 3 6 7 6 9 9 9 8 9 11 11 12 12 12 11 10 10 10 10 9 8 7 7 7 5 7 7 6 6 7 7 8
1 2 5 8 5 6 2 5 6 5 6 7 6 7 9 10 9 7 5 6 5 4 5 7 7 9 9 9 10 11 9 9 11 12 12 12 12 12 12 13 13 13 12 11 12 13 13 13 14 14 15 13 11 12 11 7 10 8 7 10 9 10 10 10 9 8 9 12 12 12 11 11 10 10 9 8 7 7 6 6 8 8 8 8 8 7 7
2 5 1 3 6 2 6 4 8 7 4 6 3 5 10 11 11 10 7 8 10 9 8 9 9 10 10 12 12 12 12 11 11 11 12 12 12 12 13 14 13 13 13 12 13 13 13 14 14 15 15 12 11 13 12 10 10 10 10 11 11 9 11 10 9 8 8 10 12 11 11 11 10 10 8 8 8 7 6 6 7 7 7 8 7 7 7
3 1 3 3 2 2 4 3 9 9 3 8 4 5 12 11 10 7 7 8 8 7 8 8 7 8 9 10 13 14 13 11 11 12 12 12 12 13 12 13 13 14 14 14 14 13 12 13 14 16 15 12 11 12 13 12 13 12 10 13 11 10 10 9 10 8 8 11 12 11 10 9 9 9 8 8 8 6 6 6 5 6 7 7 8 8 7
6 4 3 4 7 6 8 3 8 8 5 6 5 2 7 11 9 7 2 4 6 6 6 6 6 6 6 8 10 14 13 11 11 12 12 12 13 13 13 13 13 13 13 14 14 15 15 15 15 14 12 11 11 11 12 13 13 14 14 12 11 10 10 9 9 7 7 10 9 10 9 10 10 8 8 8 7 5 6 6 7 7 7 7 7 7 7
3 5 2 5 5 3 5 6 5 5 3 2 3 2 3 11 10 8 5 3 5 5 4 4 4 5 1 5 6 11 12 10 10 10 12 12 12 12 12 12 13 13 12 12 13 13 15 15 14 12 11 10 11 12 12 12 14 12 12 12 10 10 11 10 9 10 9 8 8 10 9 9 9 8 7 7 7 5 6 6 7 6 7 7 7 7 8
3 2 5 1 2 5 5 8 7 6 4 2 2 3 2 8 9 8 5 4 4 4 3 5 6 4 2 4 5 8 10 9 8 10 11 12 12 12 12 11 12 12 12 12 13 14 15 15 13 12 10 10 10 12 12 12 12 13 11 10 10 11 11 10 9 9 9 9 9 10 10 8 8 8 7 6 6 5 6 6 7 6 6 6 7 7 7
5 5 2 4 4 4 9 9 7 7 5 1 3 4 3 8 9 8 6 4 4 4 5 4 8 6 3 5 5 9 9 8 9 10 11 11 11 12 11 12 12 12 11 12 14 14 14 13 11 12 11 10 11 10 10 10 12 11 10 9 9 9 8 7 7 9 10 10 10 9 9 7 7 7 6 6 7 6 6 5 5 5 4 5 6 6 5
3 4 7 6 4 3 11 9 8 5 1 3 1 4 5 8 7 8 7 8 7 7 7 5 6 6 7 4 4 7 8 8 10 10 10 11 11 12 11 11 11 11 12 12 12 11 10 11 11 11 10 12 12 11 10 11 12 9 7 6 7 7 7 8 9 10 9 8 8 8 8 7 6 5 5 5 4 5 5 4 4 4 4 4 4 4 4
0 1 5 7 5 3 11 13 7 4 4 1 4 3 5 7 8 8 8 8 9 10 11 8 8 5 5 3 5 7 8 8 10 11 11 11 11 11 11 12 11 11 11 12 12 12 11 11 11 10 10 11 10 10 10 11 9 7 6 6 6 7 7 8 8 8 7 7 7 5 4 6 6 5 4 4 4 4 4 4 4 4 4 4 4 3 3
3 4 6 4 3 5 14 15 2 12 3 4 2 4 8 7 7 8 9 9 9 12 13 12 9 7 5 4 6 7 5 6 10 11 11 11 12 12 12 12 13 11 11 12 13 13 11 11 11 10 11 11 11 10 11 10 8 7 8 8 7 7 8 8 7 6 6 7 7 6 6 6 7 6 5 5 5 4 3 3 3 4 4 3 4 5 4
5 6 6 4 3 7 10 10 6 6 6 3 4 4 6 7 7 8 9 10 10 10 11 9 9 9 8 9 8 8 7 8 10 10 11 11 11 11 11 11 11 11 11 10 10 11 10 10 10 10 10 10 9 9 8 5 5 6 7 7 7 8 8 7 7 7 8 7 6 5 5 5 5 6 4 3 4 4 3 2 2 2 2 2 2 3 4
5 5 4 0 2 4 7 9 9 9 9 9 9 9 7 8 8 9 9 11 10 10 11 11 10 9 9 10 10 9 7 6 9 10 10 10 10 9 9 9 9 9 10 10 10 11 11 11 10 9 9 9 9 9 7 5 5 6 5 5 6 7 7 6 7 7 6 6 6 6 6 6 5 4 4 3 4 3 3 3 3 2 3 3 3 3 2
16 11 6 9 10 11 12 11 9 11 12 11 10 10 10 10 10 9 10 11 10 9 9 11 10 10 10 11 11 10 9 8 8 8 9 9 9 9 8 7 8 10 9 10 10 10 10 9 8 8 9 9 10 9 7 7 7 7 6 7 7 7 7 7 6 6 6 6 6 5 5 5 5 5 5 6 5 4 4 3 3 3 3 2 2 2 1
4 8 7 12 13 13 14 15 14 13 12 12 11 11 11 11 11 11 11 11 11 10 9 11 11 11 9 9 8 7 6 7 7 8 9 9 9 9 10 9 7 8 7 8 8 9 10 9 9 8 8 7 7 6 7 7 7 7 7 6 7 6 6 6 7 7 7 5 4 5 5 4 4 4 4 4 4 4 4 3 3 2 2 1 2 2 2
11 10 10 12 12 12 12 11 12 13 13 13 13 11 11 11 12 12 12 11 11 10 10 10 10 9 8 7 6 6 7 7 8 8 9 8 9 9 9 10 10 9 9 8 9 8 7 7 7 8 9 8 8 7 7 8 7 7 7 8 7 7 8 7 6 6 6 1 2 5 5 6 6 6 6 5 6 7 7 7 7 5 3 3 4 4 3
13 13 12 12 13 13 12 12 12 11 10 11 13 13 12 12 12 11 10 9 10 9 9 8 9 10 8 8 7 8 7 7 7 7 7 8 8 8 8 8 8 8 8 9 9 8 8 9 8 8 5 6 7 7 7 6 7 6 6 6 7 8 7 6 6 6 6 6 5 4 5 6 7 7 7 7 7 7 8 7 6 6 6 7 7 6 5
8 8 9 7 7 8 9 11 11 11 10 10 11 10 11 11 11 10 11 10 10 10 9 9 9 9 8 7 7 7 6 6 6 6 6 6 6 6 5 4 5 6 6 6 7 8 7 7 7 7 8 6 6 6 5 6 6 6 6 5 5 7 8 8 7 6 5 5 5 5 4 3 6 7 7 8 7 5 5 7 9 8 7 5 5 6 5
7 7 8 9 10 10 9 9 9 9 9 9 9 8 9 9 9 9 9 9 9 8 8 7 8 8 7 7 7 6 6 5 5 4 4 5 5 5 5 5 6 6 7 6 6 6 6 6 7 7 6 6 6 5 7 6 6 5 5 4 4 4 6 6 6 6 5 6 5 5 4 3 2 4 6 6 9 9 8 8 7 6 5 5 7 8 6
11 10 10 8 8 9 8 8 8 8 7 8 9 8 7 7 7 6 6 6 6 6 6 5 5 5 5 5 4 5 5 4 3 4 3 2 3 2 2 3 3 3 4 5 5 6 5 5 7 7 7 5 5 5 5 5 4 5 5 5 5 5 4 3 2 6 4 5 4 4 4 4 3 4 4 5 5 7 5 5 5 5 6 7 6 6 6
10 9 10 10 10 9 8 8 7 7 8 8 8 7 7 6 6 5 5 5 4 4 3 3 3 2 2 3 2 3 4 4 6 4 2 3 1 5 5 5 4 5 5 5 5 5 6 7 7 7 7 5 4 4 4 4 4 4 5 5 5 6 7 7 3 2 1 3 4 4 4 4 3 1 3 2 6 4 4 5 7 6 5 4 4 5 6
11 10 10 9 8 8 7 7 7 7 7 7 7 7 7 9 8 4 5 4 4 3 3 3 2 2 2 2 1 1 3 4 5 5 3 5 5 5 5 6 6 6 6 7 6 6 6 7 9 7 6 6 5 4 4 4 4 4 4 4 4 5 6 6 7 3 5 5 4 3 3 3 2 5 4 4 5 2 6 4 3 2 1 2 2 1 2
11 10 9 8 7 6 4 4 6 5 6 5 7 8 7 6 3 4 5 5 4 4 3 3 2 1 1 1 3 4 6 3 1 3 4 4 4 5 5 5 7 7 7 7 7 3 4 4 7 8 6 5 4 4 4 4 3 4 4 4 3 5 3 4 5 5 3 3 4 5 4 4 4 3 2 2 2 4 3 2 5 8 6 5 6 10 5
6 5 5 5 5 6 7 7 6 5 5 5 5 5 5 4 4 4 4 4 3 2 3 1 1 1 1 1 1 3 5 3 3 3 4 4 4 5 5 6 7 8 7 8 8 8 8 7 7 7 6 4 3 4 4 3 3 3 3 3 3 3 1 3 5 4 3 4 5 5 5 4 3 3 3 2 3 1 1 1 4 4 4 7 6 8 7
7 7 7 8 7 7 6 6 5 4 5 4 3 3 3 3 2 2 2 2 2 2 0 1 1 1 3 1 2 3 3 3 4 4 4 3 3 4 6 7 8 9 8 9 9 9 9 8 8 8 7 4 3 3 5 4 4 3 3 3 3 4 4 4 4 4 5 4 4 5 5 4 2 2 1 2 2 2 1 2 4 4 4 2 2 6 7
7 6 7 7 7 6 5 5 5 4 3 2 2 1 0 2 1 1 2 1 1 3 0 1 2 2 1 2 2 3 3 4 4 4 4 3 4 5 6 8 9 9 9 9 9 9 8 7 7 8 7 4 2 3 4 5 4 4 4 3 2 2 5 7 7 7 5 3 2 3 3 6 2 2 3 2 2 2 2 0 2 2 4 2 2 5 4
6 5 5 5 4 4 4 3 2 2 1 0 1 3 1 2 3 2 3 4 3 4 2 2 3 2 1 3 3 2 3 3 5 5 6 5 5 4 6 7 8 8 8 9 10 10 10 10 8 8 7 7 4 3 4 5 5 4 5 3 1 6 6 3 7 5 6 2 1 3 6 3 2 3 4 3 2 2 4 1 1 1 3 3 3 3 4
7 6 5 5 5 4 2 2 1 1 0 1 2 2 1 2 2 3 3 5 5 6 4 2 2 3 3 3 3 4 4 6 2 3 3 3 2 1 4 7 8 7 7 7 7 8 8 8 9 9 9 8 7 5 4 5 6 5 5 3 4 5 4 4 5 7 3 3 2 3 2 3 1 1 2 2 3 2 1 0 1 0 1 2 2 3 5
5 4 3 3 1 1 2 1 2 1 1 1 1 3 3 4 4 3 4 4 4 4 4 3 3 2 2 2 2 2 5 2 0 0 1 1 1 2 3 5 7 8 8 8 8 9 9 9 10 9 8 8 7 5 5 6 6 6 4 4 3 2 5 4 3 3 3 3 2 3 5 3 2 1 3 2 4 5 1 0 0 0 0 1 2 5 5
2 4 4 4 3 3 2 1 0 2 1 1 2 3 2 1 3 4 4 4 4 4 3 2 3 2 1 4 3 3 2 1 3 2 1 1 2 2 4 5 6 7 8 8 8 8 7 8 8 8 8 9 9 5 5 7 6 5 4 3 4 3 4 3 8 4 2 1 2 4 2 2 3 1 1 1 1 1 3 0 0 1 0 0 3 6 6
4 4 3 3 1 1 1 4 3 2 2 3 2 3 2 3 3 3 3 6 5 3 2 3 2 6 3 3 3 2 2 3 3 1 2 2 1 2 5 6 8 7 8 8 6 7 7 7 7 8 8 8 8 5 6 7 5 4 4 3 3 4 3 3 4 4 4 4 3 3 1 3 2 2 1 3 1 1 0 0 1 0 0 0 1 3 5
3 3 3 1 0 2 3 4 2 3 4 4 3 3 4 3 3 5 4 4 4 4 2 1 3 4 2 3 3 3 3 3 3 4 2 2 2 2 3 7 8 8 8 7 6 5 7 4 5 4 5 7 7 6 6 6 5 3 3 3 3 4 3 3 4 3 2 3 4 2 6 4 2 2 3 1 0 0 1 1 0 0 0 1 1 3 2
3 2 1 2 2 2 4 3 4 4 4 4 5 4 4 2 5 4 4 4 3 3 3 2 3 3 3 4 2 2 3 3 2 2 1 2 2 1 3 5 8 8 8 5 4 4 3 5 4 3 4 7 7 6 3 5 4 3 3 4 3 4 3 4 3 4 3 4 4 3 6 1 2 2 1 2 0 0 1 1 1 0 1 1 2 2 3
2 1 2 2 2 3 3 4 4 5 5 5 5 4 5 4 5 5 4 4 4 4 3 4 3 3 3 2 2 4 4 3 4 3 0 1 1 2 6 7 7 7 5 3 3 3 4 3 4 4 6 7 5 4 4 6 2 4 2 3 3 3 3 4 4 3 4 1 6 2 2 1 1 1 1 0 0 1 1 1 1 1 2 2 2 2 2
2 2 1 0 3 2 3 4 3 5 5 6 6 5 4 4 6 6 5 5 4 3 3 4 4 4 4 5 5 4 5 6 5 3 3 3 4 5 5 8 7 6 3 4 4 2 4 1 3 2 5 6 7 5 7 4 2 5 3 1 3 4 3 4 4 3 2 5 3 2 0 0 1 1 1 1 0 1 1 3 1 1 1 2 1 1 1
2 2 2 2 4 4 4 4 4 5 5 4 5 5 5 6 5 6 5 5 5 3 5 5 5 5 5 5 6 6 6 9 6 5 4 3 6 7 8 10 6 1 5 1 3 2 4 2 4 2 3 5 1 3 3 4 1 5 4 3 4 4 4 3 4 3 3 1 4 1 1 0 1 1 2 2 1 2 2 3 3 2 2 2 2 2 2
3 3 4 4 5 5 5 5 5 5 6 7 6 6 5 5 5 5 5 6 6 4 3 4 5 5 7 7 5 5 6 4 5 7 7 7 7 8 4 5 4 3 4 3 4 2 3 1 2 6 5 0 3 4 3 4 4 5 6 4 4 4 3 4 4 4 3 4 2 0 2 2 1 2 2 2 2 2 2 2 2 2 2 2 3 2 2
4 4 4 5 5 5 5 5 5 6 6 6 7 6 6 6 6 6 5 5 6 6 6 6 2 4 7 7 6 6 6 6 5 5 6 6 6 4 4 4 3 4 9 7 6 4 4 5 3 2 2 6 3 4 7 2 3 5 7 6 5 4 4 4 4 5 2 3 4 2 2 1 2 2 2 2 3 3 3 3 3 3 2 2 2 2 2
4 4 5 5 5 6 6 5 6 6 6 6 6 5 5 5 5 6 6 6 6 6 6 7 3 6 6 7 7 7 6 6 6 6 5 6 6 6 5 5 4 7 6 1 3 3 4 3 4 4 8 6 3 7 4 4 6 7 6 4 4 3 4 4 5 5 3 3 4 3 3 2 3 2 2 2 3 3 4 4 3 3 3 2 2 2 2
4 4 4 4 4 4 5 6 5 5 6 6 5 4 5 5 5 6 6 6 6 6 7 7 6 6 7 7 7 6 7 6 5 5 5 5 6 7 6 4 3 6 3 2 4 4 4 4 3 8 12 8 8 6 4 5 6 6 7 5 4 4 4 5 5 5 5 3 3 4 3 3 2 3 3 2 2 3 3 3 2 3 3 2 2 2 1
3 4 3 3 5 5 6 5 6 5 5 5 6 6 6 6 6 6 7 6 6 6 6 6 6 6 6 6 6 6 6 5 5 3 4 3 4 2 4 2 4 4 5 3 4 5 5 2 9 10 7 8 7 6 6 6 6 6 6 5 5 4 5 5 5 5 5 4 2 4 5 3 5 2 3 2 4 3 3 3 3 3 3 3 2 2 2
4 4 2 4 5 5 5 6 6 5 6 7 7 6 5 6 6 6 6 6 7 6 5 6 5 5 5 5 5 4 4 5 5 4 4 3 3 1 5 5 5 7 4 2 4 6 4 8 8 6 6 6 5 6 6 7 7 7 5 4 5 5 5 5 5 6 6 5 4 4 4 4 4 3 3 3 3 3 3 4 3 3 3 3 3 3 3
3 3 4 4 4 5 5 5 4 6 6 6 6 5 5 5 5 5 6 6 6 5 6 6 5 5 5 5 5 4 5 5 4 3 4 3 3 2 7 6 6 4 4 3 3 3 5 4 5 4 3 5 6 6 7 7 7 6 6 5 4 5 5 5 5 5 5 5 4 2 5 6 4 2 3 3 3 3 3 3 3 3 2 3 3 2 3
3 4 4 4 5 5 4 6 6 6 7 6 6 5 5 4 4 5 5 5 5 5 5 5 5 6 4 4 5 4 5 4 3 3 3 4 2 1 3 2 5 4 3 3 3 3 6 6 5 4 4 4 5 6 7 7 6 5 4 5 4 5 5 5 5 5 5 5 2 4 5 4 4 5 3 4 3 3 3 3 3 3 2 2 2 2 4
3 3 3 5 4 4 5 3 5 7 5 4 5 4 3 4 4 4 4 4 4 5 5 5 5 5 4 4 4 4 3 2 3 2 1 2 2 3 3 8 7 5 5 4 3 4 5 5 4 4 4 5 5 6 6 6 5 4 4 4 5 3 4 4 4 4 5 5 4 4 4 5 4 4 3 3 4 3 5 4 3 3 3 3 3 3 1
3 3 5 4 4 4 4 4 5 6 3 5 4 3 3 3 4 3 3 3 4 4 5 3 2 2 3 3 5 4 3 2 2 3 2 3 4 4 4 5 5 4 4 6 1 4 6 6 5 4 5 5 5 5 5 4 3 3 4 4 4 4 1 4 3 3 3 5 5 5 5 5 5 3 3 4 3 3 3 3 3 4 8 2 3 3 3
4 4 4 3 3 2 1 3 3 3 3 3 3 2 3 3 3 3 3 4 5 2 3 1 2 2 2 2 4 3 2 2 2 1 4 3 3 2 2 2 5 4 4 4 4 2 4 5 3 4 5 5 4 4 4 3 4 4 3 2 3 4 2 2 5 5 6 5 5 5 4 4 5 5 3 3 3 3 4 6 5 3 4 5 3 3 3
4 4 3 3 4 3 3 3 2 2 3 3 3 3 2 2 3 2 1 4 4 2 2 3 2 4 4 4 3 5 3 2 2 2 3 3 3 2 3 1 3 4 4 6 5 3 2 3 6 4 4 3 3 1 3 2 4 2 2 3 1 3 3 3 2 3 3 4 5 6 5 5 5 3 3 3 3 5 3 3 3 3 3 3 4 4 4
Wind_Direction
293 274 200 168 184 205 179 251 303 303 303 336 359 329 9 350 274 296 21 185 128 109 66 65 49 46 37 29 28 25 23 22 24 29 35 35 32 26 24 23 20 19 14 12 10 7 4 1 359 354 352 309 246 231 213 282 255 240 193 174 170 173 158 151 154 144 139 144 145 146 146 151 151 150 149 150 148 137 136 139 138 131 146 144 166 133 124
302 269 229 203 234 189 222 228 319 345 328 342 11 359 13 329 311 307 127 83 87 51 61 45 49 51 47 44 41 36 31 29 26 33 34 33 31 28 25 20 22 19 17 14 12 12 11 6 2 358 354 350 326 240 202 188 224 234 233 169 156 142 135 131 130 135 133 131 136 137 139 137 137 140 139 132 132 136 134 130 131 131 136 145 147 147 152
303 270 218 233 225 210 196 77 18 7 342 8 33 8 12 326 259 321 49 116 94 75 57 63 61 63 56 51 46 41 35 31 31 34 37 36 33 32 28 26 24 22 22 21 19 16 14 12 8 359 358 349 346 339 50 99 180 187 211 158 139 134 129 128 127 128 127 125 125 126 125 124 118 105 86 72 81 111 121 120 115 122 132 141 150 155 130
261 252 225 225 197 202 157 60 38 5 10 11 13 40 22 22 2 342 313 105 62 92 81 72 65 58 51 46 44 42 37 36 39 40 40 38 35 33 32 30 27 27 27 25 22 21 21 21 18 13 9 6 2 341 354 55 38 75 77 88 113 116 122 121 120 119 117 116 112 110 113 112 106 103 99 95 90 80 76 108 115 117 128 123 87 78 84
238 346 283 179 206 215 159 42 10 346 6 3 25 55 33 27 355 5 16 59 69 107 124 95 63 55 47 45 37 32 40 41 42 43 41 42 40 39 36 32 33 33 34 30 27 26 26 27 27 22 19 27 3 344 325 38 60 55 76 85 78 67 71 98 110 117 117 114 107 98 96 97 98 100 104 101 94 87 76 75 102 103 96 104 111 91 89
64 30 317 292 192 217 142 56 15 354 19 23 14 33 20 17 16 344 354 70 92 123 105 82 74 63 56 52 46 37 36 40 41 42 43 44 45 45 41 40 39 37 38 39 35 34 34 37 37 35 32 33 24 356 332 5 59 51 56 64 67 71 59 41 42 58 88 100 101 102 98 93 91 89 90 92 93 91 85 68 80 95 101 98 99 97 94
270 130 85 281 250 109 99 82 34 359 35 34 26 59 37 23 10 8 56 64 69 66 77 90 88 83 72 54 46 40 38 39 45 45 46 44 44 45 44 45 44 43 43 42 42 38 33 35 40 40 37 27 36 22 358 9 42 56 54 63 62 60 70 62 46 51 66 74 83 85 84 82 82 85 86 88 88 91 96 99 98 100 104 101 98 100 95
97 311 161 222 81 118 164 87 26 8 31 12 314 102 41 28 16 14 29 50 61 79 93 99 103 102 94 72 46 36 36 39 42 50 50 49 46 48 47 47 46 46 47 49 45 39 32 31 36 42 39 30 29 44 18 25 35 36 42 51 43 36 45 53 65 51 56 76 75 73 77 79 81 80 81 84 87 85 86 89 92 102 104 108 108 105 101
267 238 237 87 118 112 40 26 18 19 10 350 16 35 50 27 15 9 37 59 78 85 103 119 134 152 127 69 43 26 28 34 47 52 57 57 57 57 57 54 54 51 49 50 49 50 44 35 37 34 25 23 29 33 41 26 36 41 40 41 36 29 35 35 41 44 49 70 80 91 83 81 80 83 89 87 81 74 77 82 89 89 89 87 87 94 97
251 261 129 137 184 166 72 26 12 16 14 341 290 273 122 28 13 12 20 61 93 109 111 137 171 229 155 48 29 12 18 25 37 52 55 51 52 54 55 55 56 54 53 51 48 46 44 40 31 36 27 27 31 37 33 31 33 29 30 32 32 37 37 33 29 39 40 54 62 67 69 72 80 77 71 67 66 70 88 91 87 87 89 83 80 73 69
270 316 235 238 194 82 19 5 357 355 333 305 207 244 130 17 10 13 33 78 103 95 87 23 352 302 175 77 32 350 5 35 40 54 53 54 54 52 50 48 51 53 51 47 48 46 42 41 33 31 26 33 40 41 38 35 39 42 34 30 30 36 37 36 37 41 41 38 48 57 61 54 56 62 61 61 59 56 70 79 78 86 89 93 90 83 78
228 248 251 82 20 50 360 345 352 342 327 224 211 229 84 1 13 26 30 69 92 75 37 31 39 13 114 83 24 340 346 40 52 54 59 58 52 49 50 49 51 57 54 52 48 48 46 44 36 35 26 33 37 40 40 40 43 44 41 39 37 41 39 33 38 51 49 44 47 54 63 64 57 54 49 56 60 57 54 70 84 77 80 82 82 77 66
93 84 103 114 96 57 352 348 340 355 7 202 289 14 354 337 354 32 31 38 42 55 54 61 81 45 63 60 2 343 8 34 54 62 61 60 56 52 47 42 37 45 49 52 53 50 52 50 47 45 39 39 34 30 34 41 42 43 38 41 48 42 40 38 37 41 47 48 53 51 51 52 61 67 74 75 78 92 85 70 70 81 76 79 82 84 88
198 178 92 89 87 40 345 333 338 22 247 354 51 37 23 16 42 39 45 58 65 74 72 76 82 74 63 52 23 33 35 34 40 53 56 59 62 59 53 44 39 43 41 43 46 49 47 49 48 46 50 53 46 37 39 44 42 41 45 54 57 52 50 46 44 45 47 53 46 50 66 72 66 64 71 87 95 85 89 115 127 119 118 113 101 93 87
246 107 105 100 58 29 358 319 259 13 26 46 18 46 52 45 52 57 60 73 84 96 92 83 85 76 60 63 68 54 33 54 68 68 62 55 54 52 48 44 39 39 41 39 41 42 41 44 48 44 44 52 52 46 46 46 47 47 48 51 57 62 63 62 58 55 47 53 60 55 56 59 64 54 49 54 62 74 84 82 83 108 124 125 135 144 152
45 54 57 57 9 310 350 20 58 25 53 60 47 23 60 56 66 75 80 80 88 90 95 96 81 83 91 86 82 75 61 61 71 72 70 67 62 57 52 48 42 40 44 42 43 42 42 42 47 49 49 54 57 62 56 47 52 56 56 57 58 58 58 61 63 60 57 53 50 49 49 64 79 74 59 67 64 50 36 60 85 87 88 103 142 149 149
45 72 83 42 188 53 44 58 75 68 70 73 67 68 73 78 82 90 88 94 91 90 91 86 81 75 71 74 66 59 47 58 68 69 70 72 72 69 62 57 52 50 45 42 41 42 40 40 38 41 45 47 50 57 63 73 63 61 61 60 59 60 63 63 65 66 69 67 60 46 41 36 45 64 66 53 84 74 67 53 44 62 67 46 31 44 47
90 85 99 100 83 79 80 79 77 75 72 70 75 80 81 78 88 92 96 98 94 89 87 90 79 74 74 73 67 63 60 52 51 60 68 65 64 67 73 77 57 50 52 46 42 40 42 42 46 43 41 39 39 37 41 47 52 58 60 61 65 68 62 51 47 62 65 71 67 69 75 69 57 42 39 41 40 51 50 56 54 56 60 74 90 90 62
123 77 98 89 90 89 86 83 84 84 81 81 85 88 91 97 96 97 95 99 97 94 92 91 93 90 88 89 88 89 85 73 63 51 52 47 45 44 43 40 39 52 54 49 47 42 38 29 25 30 47 49 46 40 42 41 39 38 42 55 58 55 66 83 80 62 47 27 47 54 50 72 80 68 67 73 61 51 41 43 71 76 83 68 110 98 109
87 109 102 94 89 85 84 85 83 79 80 83 83 89 97 104 106 104 107 108 107 108 101 104 107 110 108 104 98 87 80 79 73 67 63 56 51 41 34 26 20 29 32 39 39 39 33 36 41 30 18 21 37 34 40 38 44 50 42 31 40 49 52 47 38 52 66 315 326 73 44 38 38 37 40 42 58 44 22 10 2 12 29 52 37 33 22
104 107 100 95 87 79 78 78 79 84 90 94 100 102 101 105 110 112 113 113 114 114 114 114 109 101 96 90 87 75 65 65 60 59 56 55 51 42 34 31 31 30 19 25 28 28 24 16 11 23 28 25 17 23 19 39 38 31 41 48 44 41 36 42 49 38 40 38 41 54 88 82 63 44 31 26 38 64 51 32 29 15 5 26 24 14 360
113 114 119 125 109 101 91 82 79 81 85 91 92 96 102 110 108 110 113 114 117 116 114 112 107 105 101 96 87 81 76 68 65 59 55 51 42 43 42 48 37 40 29 13 25 17 9 11 11 8 352 21 11 20 21 20 27 23 16 23 47 55 39 28 16 22 34 34 36 35 32 78 109 88 38 42 29 41 77 84 69 53 39 37 12 355 353
110 108 96 89 92 94 89 99 105 103 98 90 84 80 84 91 98 107 117 121 119 114 111 115 105 105 112 121 119 106 94 93 74 61 51 42 35 26 19 15 20 12 9 4 1 11 5 359 4 11 353 350 7 1 13 17 19 6 2 3 31 30 48 42 12 344 29 25 24 25 28 9 26 134 139 102 62 51 82 112 108 107 86 85 57 34 12
102 108 106 106 104 104 107 95 86 81 77 80 87 92 89 91 101 111 108 114 114 119 125 128 119 105 107 118 97 92 102 93 86 61 71 85 49 44 49 39 25 3 348 344 355 348 339 5 0 355 345 343 3 341 350 9 5 360 11 6 9 16 20 60 46 11 19 38 7 26 26 20 12 345 138 127 114 96 60 89 113 103 112 103 99 96 59
106 100 103 105 108 109 102 91 76 64 52 52 65 74 85 105 106 100 99 106 124 123 128 126 123 94 76 71 50 32 42 55 50 43 56 84 37 344 8 12 354 342 341 340 339 342 346 344 354 345 325 338 359 335 334 342 13 5 7 14 9 6 6 358 6 139 316 54 19 17 13 14 7 24 353 116 122 113 100 69 43 38 42 74 102 103 107
103 105 104 108 104 101 104 107 95 92 108 104 89 81 55 32 354 50 80 88 102 118 123 141 137 133 130 127 111 23 28 62 48 318 343 20 5 358 7 353 348 329 338 333 337 328 342 356 328 300 321 343 351 326 319 330 352 1 2 359 37 31 1 350 320 358 1 13 10 18 12 22 42 353 33 12 3 125 149 139 147 131 74 310 311 162 165
106 111 118 113 105 104 124 100 91 91 89 84 82 92 94 108 230 77 73 63 67 63 59 53 42 52 66 75 31 33 35 68 170 265 353 357 351 351 352 338 340 337 320 319 313 353 106 296 289 317 334 352 347 314 294 320 336 330 355 343 42 109 82 326 326 352 12 1 2 13 9 355 359 26 44 7 52 353 7 161 188 176 169 167 197 236 224
108 133 137 110 107 110 109 106 116 113 101 100 109 84 76 87 89 108 93 86 85 88 105 124 99 161 172 91 276 159 177 225 313 348 333 344 356 344 338 343 324 324 324 311 305 303 298 304 307 308 313 339 342 303 293 290 309 310 317 334 330 323 108 238 304 350 349 11 353 11 356 9 25 7 350 16 330 41 39 22 326 345 136 145 151 174 180
95 78 80 94 97 89 92 100 114 101 97 72 68 117 142 119 87 72 79 44 31 19 54 141 111 342 322 101 275 311 321 331 317 330 345 8 338 329 336 327 321 314 306 304 303 301 301 302 298 296 296 307 300 291 279 270 274 300 309 317 331 331 345 344 350 341 355 349 25 7 340 324 340 344 355 352 6 342 32 4 345 337 341 20 110 155 202
106 106 102 108 126 128 126 122 108 116 136 132 137 118 37 322 2 19 25 240 246 264 295 332 292 263 293 274 262 293 301 306 312 325 343 352 354 349 331 323 317 307 301 299 309 320 313 296 290 291 292 299 307 257 247 254 258 267 281 285 295 22 360 7 336 328 319 310 104 111 270 257 307 303 299 352 17 329 308 17 28 322 326 64 3 325 2
94 90 84 76 82 109 111 112 131 100 84 357 6 321 20 283 304 336 341 310 278 291 297 292 294 330 283 294 300 267 275 319 349 344 339 3 18 4 336 324 318 318 318 317 318 315 311 307 298 284 288 296 284 255 244 248 253 250 250 256 50 65 68 12 319 315 330 328 322 207 213 249 18 349 334 326 323 333 322 14 95 359 338 330 342 5 3
140 144 161 167 147 132 127 120 133 167 38 15 281 247 294 309 328 328 318 320 328 314 322 303 265 259 260 246 280 299 14 55 8 323 343 34 35 354 317 323 313 310 305 306 301 297 289 279 275 281 286 269 257 241 242 238 242 245 253 234 187 155 133 221 251 246 263 314 304 276 300 312 314 293 274 321 323 322 349 26 28 356 317 331 350 29 24
126 164 149 134 135 65 46 46 325 42 254 185 269 325 360 350 337 334 328 311 297 311 303 284 258 250 241 251 250 68 76 87 88 71 23 336 304 298 296 309 309 304 304 306 314 315 312 303 299 290 269 264 256 239 240 234 230 242 246 259 259 208 163 177 338 319 255 240 269 340 325 304 293 181 63 10 338 323 340 42 78 235 189 19 51 67 47
53 46 64 49 352 2 18 37 100 260 274 269 311 285 257 240 317 330 312 313 311 312 299 285 268 246 49 73 75 85 97 252 248 134 159 230 257 263 280 276 284 288 297 303 302 303 300 298 291 278 264 258 257 239 227 229 225 230 250 247 272 270 279 186 194 232 271 301 289 123 222 261 285 321 128 210 347 344 344 6 45 295 78 125 112 108 109
66 73 10 9 40 256 242 301 321 301 295 288 257 272 313 324 335 326 2 314 316 303 285 267 98 83 84 86 86 113 149 228 297 31 180 218 207 234 285 301 297 293 300 302 306 298 301 286 272 270 266 259 258 241 232 234 227 239 249 251 254 274 280 287 295 326 340 317 299 257 264 7 4 115 317 309 3 349 81 342 258 185 125 108 58 87 101
194 183 164 222 120 348 278 266 270 298 314 304 320 294 293 314 313 314 304 307 312 300 299 296 102 114 109 143 164 177 207 224 245 276 275 266 251 248 287 306 310 302 302 316 329 332 299 302 81 51 309 273 251 230 230 221 225 226 256 260 240 251 263 292 298 289 236 278 294 319 58 51 27 9 323 304 267 257 146 181 217 125 73 45 39 29 46
37 341 352 260 320 351 323 292 272 269 264 261 268 278 290 306 291 285 296 288 306 312 294 263 228 182 179 206 218 189 198 218 234 255 219 188 206 249 281 285 291 286 287 314 3 316 343 66 17 339 270 255 235 230 172 100 217 226 239 257 258 255 261 272 279 292 307 262 246 88 67 26 203 190 216 286 24 104 188 191 168 149 56 49 43 47 49
28 20 27 335 345 287 299 314 339 309 286 277 286 297 307 304 284 293 296 298 289 275 287 279 270 216 159 156 199 231 237 240 243 257 228 274 267 268 280 293 294 292 310 358 354 327 52 119 193 241 218 222 233 224 155 137 345 306 247 266 266 255 261 278 279 272 262 269 92 87 107 223 235 210 233 24 212 131 176 221 338 24 82 66 51 40 45
168 202 213 45 276 282 283 282 258 257 285 299 291 291 289 288 289 287 288 293 290 277 264 260 258 259 239 223 229 212 214 222 216 202 197 225 249 252 270 283 287 295 347 11 335 348 92 72 305 199 191 203 223 172 127 134 199 247 269 256 270 269 276 272 287 293 344 310 296 103 87 299 258 258 294 263 247 123 91 6 352 110 119 98 95 91 96
256 258 296 316 288 302 305 298 298 300 286 276 290 284 281 278 280 287 286 284 288 292 279 273 271 269 268 266 264 266 232 189 180 180 196 213 233 256 279 282 265 62 93 96 291 49 66 300 279 308 205 245 206 132 113 84 235 258 245 235 236 239 245 270 276 266 271 208 118 168 139 167 231 262 256 247 210 200 162 174 217 178 130 138 123 121 133
286 298 303 302 306 307 290 283 287 294 295 290 289 288 283 286 293 293 300 292 283 273 268 275 271 263 265 272 277 274 290 274 186 191 194 213 234 255 269 286 359 89 120 56 19 51 108 343 358 332 358 326 199 27 96 139 236 251 250 232 233 242 258 254 273 282 264 241 176 50 149 166 176 241 224 224 201 188 186 214 213 187 169 157 161 148 129
305 313 294 284 282 290 297 300 295 282 286 294 287 277 271 262 265 281 294 297 300 300 294 281 304 308 305 306 297 294 282 273 266 246 221 228 252 282 296 314 345 96 117 127 142 187 188 179 191 134 346 312 79 75 22 43 250 252 255 243 235 221 229 244 245 265 264 289 270 165 147 172 219 228 232 218 188 189 210 216 198 195 182 179 167 163 156
312 306 304 301 301 294 290 291 287 288 286 284 286 288 283 275 271 273 280 284 282 273 264 272 214 191 240 253 264 269 269 269 266 261 255 253 251 265 291 314 344 110 159 91 295 266 228 201 193 183 184 224 60 113 131 223 266 265 255 251 258 239 230 233 254 262 257 236 247 178 172 171 196 216 212 232 202 188 206 214 212 197 191 175 155 160 194
296 276 281 298 292 311 308 290 282 301 303 302 299 291 284 281 277 274 272 270 272 273 278 274 273 271 262 260 263 263 261 257 248 236 241 247 240 212 214 279 41 110 193 295 260 258 290 271 268 143 162 160 133 173 211 236 245 264 273 269 252 217 223 234 238 248 255 235 259 273 187 176 214 200 203 208 203 196 204 208 197 200 199 186 171 172 186
279 305 309 318 319 301 282 296 315 321 303 293 288 284 282 282 282 276 275 273 275 276 272 277 283 283 283 274 260 252 264 276 279 277 253 234 282 353 124 187 250 209 141 213 291 294 285 44 99 128 159 164 161 185 233 251 255 264 275 261 248 245 236 233 231 240 255 267 221 252 276 186 173 189 214 193 203 202 196 199 203 204 198 203 185 178 199
256 247 246 248 259 283 320 323 315 298 290 298 299 292 295 290 283 284 278 277 278 273 278 280 277 279 279 273 263 263 259 262 270 277 289 302 295 348 74 5 21 62 129 216 293 295 48 83 95 108 142 174 168 203 238 250 264 260 250 255 261 249 242 234 237 240 232 228 243 235 218 236 228 191 192 193 188 202 193 204 211 212 214 209 209 203 207
262 275 280 283 298 301 311 309 306 303 299 277 269 294 310 296 290 287 289 284 279 284 276 271 267 267 256 261 271 258 244 251 246 219 245 243 196 172 110 104 112 133 184 258 291 340 60 95 103 118 159 171 212 231 234 246 248 260 269 261 251 239 242 248 231 233 245 245 245 269 20 346 311 231 188 220 195 201 192 198 217 212 203 215 203 178 247
292 285 284 307 313 310 302 277 275 274 272 301 337 317 306 302 289 291 298 291 279 266 260 260 261 253 245 250 248 261 290 299 303 285 250 256 293 267 199 191 139 137 202 230 235 136 102 94 106 156 155 180 214 235 244 250 260 264 268 263 263 262 252 234 231 226 235 229 209 246 239 219 223 247 203 202 211 208 211 207 214 220 207 204 206 209 217
270 293 304 271 263 271 276 294 275 256 276 287 278 316 330 297 303 290 280 276 271 254 248 250 260 265 249 238 272 267 232 252 265 279 351 298 283 264 94 115 114 151 229 258 200 141 117 134 146 165 171 219 229 230 237 242 250 261 272 278 271 253 246 251 238 230 246 243 230 231 240 243 235 238 226 204 223 201 206 212 219 217 213 207 212 225 217
273 295 279 283 320 311 334 320 304 332 354 339 341 308 290 298 285 309 325 322 309 339 313 285 259 251 264 220 196 216 231 223 266 283 292 286 286 282 272 248 148 186 274 303 4 116 134 153 150 174 207 218 229 245 252 263 266 254 259 258 267 266 333 44 60 52 276 261 240 229 234 240 239 242 263 236 223 220 201 209 218 75 41 325 217 211 219
284 273 291 342 299 299 340 308 328 330 313 312 302 315 296 292 314 325 332 5 313 299 272 233 269 257 218 276 329 306 190 236 241 23 300 275 265 256 270 274 143 173 212 245 264 205 165 188 181 174 206 242 254 252 259 256 255 239 237 252 223 252 173 192 236 229 229 246 267 271 256 255 253 238 209 237 234 230 211 201 209 207 217 221 225 230 231
241 253 261 260 284 313 318 318 321 317 307 314 309 306 306 302 297 312 60 69 302 320 314 289 41 344 312 31 274 241 301 1 300 185 195 258 289 259 136 297 238 165 218 241 255 272 263 111 124 183 269 260 251 214 124 71 258 258 206 220 215 238 252 265 248 243 237 235 240 250 248 242 241 243 215 224 224 221 234 228 223 208 195 213 222 225 229